EW3857 Weather Reports


Display with metric or nautical units.
time (UTC)temp
F
wind
direction
speed
MPH
gust
MPH
rain 1hr
in
rain 24hr
in
rain mn
in
humidity
%
barometer
mb
20260506051238 70 209 3.0 3.0 0.00 0.00 0.00 72 1014.0
20260506050736 69 206 1.0 1.0 0.00 0.00 0.00 72 1014.1
20260506050233 69 251 1.0 1.0 0.00 0.00 0.00 72 1014.0
20260506044724 69 249 1.0 2.0 0.00 0.00 0.00 72 1014.0
20260506044221 69 237 1.0 1.0 0.00 0.00 0.00 71 1013.7
20260506043718 69 250 1.0 1.0 0.00 0.00 0.00 71 1014.0
20260506043216 69 248 0.0 1.0 0.00 0.00 0.00 71 1014.0
20260506042714 69 252 0.0 1.0 0.00 0.00 0.00 71 1014.1
20260506042213 70 250 0.0 1.0 0.00 0.00 0.00 70 1014.1
20260506041711 70 224 2.0 2.0 0.00 0.00 0.00 70 1014.1
20260506041208 70 258 0.0 0.0 0.00 0.00 0.00 70 1014.1
20260506040705 70 251 1.0 1.0 0.00 0.00 0.00 70 1014.1
20260506040201 70 261 0.0 0.0 0.00 0.00 0.00 69 1014.2
20260506035652 70 251 0.0 1.0 0.00 0.00 0.00 69 1014.0
20260506035149 70 252 0.0 1.0 0.00 0.00 0.00 69 1014.2
20260506034645 70 259 0.0 0.0 0.00 0.00 0.00 70 1014.1
20260506034143 70 251 1.0 1.0 0.00 0.00 0.00 69 1014.0
20260506033640 70 254 0.0 0.0 0.00 0.00 0.00 69 1014.1
20260506033137 70 249 1.0 1.0 0.00 0.00 0.00 69 1013.9
20260506032634 70 264 0.0 0.0 0.00 0.00 0.00 69 1014.0
20260506032131 70 225 1.0 1.0 0.00 0.00 0.00 69 1014.0
20260506031628 70 255 0.0 0.0 0.00 0.00 0.00 68 1013.8
20260506031125 70 264 0.0 0.0 0.00 0.00 0.00 69 1014.1
20260506030623 70 261 1.0 1.0 0.00 0.00 0.00 69 1014.0
20260506030120 70 233 0.0 1.0 0.00 0.00 0.00 69 1014.0
20260506025617 70 256 0.0 0.0 0.00 0.00 0.00 69 1013.8
20260506025113 70 245 1.0 1.0 0.00 0.00 0.00 69 1013.7
20260506024611 70 249 0.0 1.0 0.00 0.00 0.00 69 1013.8
20260506024107 70 262 0.0 0.0 0.00 0.00 0.00 69 1013.8
20260506023602 71 241 1.0 1.0 0.00 0.00 0.00 69 1013.8
20260506023100 71 248 1.0 1.0 0.00 0.00 0.00 69 1013.4
20260506022558 71 233 1.0 2.0 0.00 0.00 0.00 69 1013.5
20260506022055 71 233 1.0 1.0 0.00 0.00 0.00 69 1013.6
20260506021552 71 223 2.0 2.0 0.00 0.00 0.00 68 1013.6
20260506021049 71 239 2.0 2.0 0.00 0.00 0.00 68 1013.6
20260506020547 71 214 2.0 3.0 0.00 0.00 0.00 68 1013.7
20260506020044 71 248 1.0 1.0 0.00 0.00 0.00 67 1013.8
20260506015542 71 228 3.0 3.0 0.00 0.00 0.00 67 1013.9
20260506015039 71 232 1.0 1.0 0.00 0.00 0.00 67 1014.0
20260506014536 71 245 1.0 2.0 0.00 0.00 0.00 67 1014.0
20260506014031 71 241 2.0 2.0 0.00 0.00 0.00 67 1013.6
20260506013531 71 256 2.0 3.0 0.00 0.00 0.00 66 1013.7
20260506013027 71 194 3.0 5.0 0.00 0.00 0.00 67 1013.7
20260506012523 71 241 1.0 1.0 0.00 0.00 0.00 68 1013.5
20260506012020 71 175 3.0 3.0 0.00 0.00 0.00 66 1013.7
20260506011518 71 218 3.0 5.0 0.00 0.00 0.00 66 1013.7
20260506011014 72 161 3.0 3.0 0.00 0.00 0.00 66 1013.5
20260506010513 72 243 3.0 5.0 0.00 0.00 0.00 67 1013.4
20260506010009 72 211 2.0 2.0 0.00 0.00 0.00 65 1013.6
20260506005507 72 239 1.0 1.0 0.00 0.00 0.00 66 1013.5
20260506005002 72 173 2.0 2.0 0.00 0.00 0.00 65 1013.5
20260506004500 72 239 3.0 3.0 0.00 0.00 0.00 65 1013.5
20260506003956 72 259 2.0 3.0 0.00 0.00 0.00 66 1013.5
20260506003453 72 169 4.0 5.0 0.00 0.00 0.00 67 1013.3
20260506002949 72 181 5.0 6.0 0.00 0.00 0.00 66 1013.5
20260506002445 72 216 2.0 3.0 0.00 0.00 0.00 65 1013.4
20260506001940 72 168 1.0 2.0 0.00 0.00 0.00 66 1013.3
20260506001438 72 179 4.0 5.0 0.00 0.00 0.00 65 1013.2
20260506000935 72 193 5.0 7.0 0.00 0.00 0.00 64 1013.5
20260506000432 72 198 5.0 7.0 0.00 0.00 0.00 65 1013.8
20260505235929 72 201 5.0 6.0 0.00 0.00 0.00 65 1013.7
20260505235427 73 166 5.0 6.0 0.00 0.00 0.00 64 1013.6
20260505234924 73 204 4.0 6.0 0.00 0.00 0.00 65 1013.7
20260505234421 73 210 2.0 2.0 0.00 0.00 0.00 65 1013.8
20260505233918 73 167 3.0 3.0 0.00 0.00 0.00 64 1013.9
20260505233416 73 211 5.0 7.0 0.00 0.00 0.00 63 1013.9
20260505232913 73 203 5.0 7.0 0.00 0.00 0.00 62 1014.1
20260505232411 73 212 3.0 3.0 0.00 0.00 0.00 64 1014.4
20260505231907 73 178 3.0 5.0 0.00 0.00 0.00 63 1014.1
20260505231405 73 160 5.0 6.0 0.00 0.00 0.00 63 1014.3
20260505230903 73 164 5.0 7.0 0.00 0.00 0.00 62 1014.4
20260505230400 73 185 2.0 2.0 0.00 0.00 0.00 62 1014.4
20260505225856 73 222 2.0 3.0 0.00 0.00 0.00 62 1014.5
20260505225354 73 199 3.0 6.0 0.00 0.00 0.00 62 1014.4
20260505224849 73 215 4.0 5.0 0.00 0.00 0.00 62 1014.4
20260505224347 73 203 5.0 7.0 0.00 0.00 0.00 60 1014.5
20260505223843 73 248 1.0 1.0 0.00 0.00 0.00 63 1014.6
20260505223340 73 226 3.0 5.0 0.00 0.00 0.00 62 1014.1
20260505222836 74 189 3.0 3.0 0.00 0.00 0.00 62 1014.3
20260505222333 74 146 5.0 7.0 0.00 0.00 0.00 61 1014.2
20260505221830 74 188 3.0 5.0 0.00 0.00 0.00 59 1014.3
20260505221326 74 238 3.0 5.0 0.00 0.00 0.00 59 1014.2
20260505220824 74 202 5.0 7.0 0.00 0.00 0.00 58 1014.2
20260505220320 74 231 3.0 5.0 0.00 0.00 0.00 59 1014.3
20260505215819 74 198 3.0 5.0 0.00 0.00 0.00 58 1014.3
20260505215316 74 195 3.0 3.0 0.00 0.00 0.00 59 1014.1
20260505214814 74 201 4.0 6.0 0.00 0.00 0.00 60 1014.3
20260505214311 74 193 6.0 9.0 0.00 0.00 0.00 59 1014.3
20260505213808 75 154 3.0 5.0 0.00 0.00 0.00 58 1014.3
20260505213306 74 188 4.0 5.0 0.00 0.00 0.00 58 1014.2
20260505212801 74 181 6.0 8.0 0.00 0.00 0.00 58 1014.1
20260505212259 74 163 3.0 5.0 0.00 0.00 0.00 59 1014.1
20260505211755 73 194 1.0 2.0 0.00 0.00 0.00 61 1014.3
20260505211253 73 203 3.0 3.0 0.00 0.00 0.00 60 1014.0
20260505210749 73 144 6.0 7.0 0.00 0.00 0.00 59 1014.1
20260505210246 73 142 4.0 6.0 0.00 0.00 0.00 61 1014.1
20260505205743 73 240 1.0 1.0 0.00 0.00 0.00 60 1014.3
20260505205242 73 172 1.0 2.0 0.00 0.00 0.00 60 1014.1
20260505204738 74 171 4.0 6.0 0.00 0.00 0.00 58 1014.1
20260505204236 75 201 3.0 5.0 0.00 0.00 0.00 59 1014.0
20260505203733 74 162 7.0 8.0 0.00 0.00 0.00 56 1014.3
20260505203230 73 165 4.0 5.0 0.00 0.00 0.00 59 1014.1
20260505202725 74 168 4.0 5.0 0.00 0.00 0.00 58 1014.1
20260505202221 74 208 2.0 3.0 0.00 0.00 0.00 57 1014.3
20260505201718 73 234 2.0 2.0 0.00 0.00 0.00 57 1014.3
20260505201216 74 247 0.0 1.0 0.00 0.00 0.00 54 1014.5
20260505200714 74 192 4.0 6.0 0.00 0.00 0.00 56 1014.1
20260505200211 74 144 3.0 3.0 0.00 0.00 0.00 55 1014.1
20260505195706 74 229 3.0 3.0 0.00 0.00 0.00 56 1014.5
20260505195204 75 203 4.0 5.0 0.00 0.00 0.00 52 1014.8
20260505194701 76 223 1.0 1.0 0.00 0.00 0.00 50 1015.0
20260505194157 76 238 1.0 1.0 0.00 0.00 0.00 51 1015.3
20260505193654 76 257 0.0 0.0 0.00 0.00 0.00 50 1015.3
20260505193151 75 191 2.0 3.0 0.00 0.00 0.00 52 1015.3
20260505192649 75 175 6.0 8.0 0.00 0.00 0.00 52 1015.5
20260505192147 76 204 3.0 3.0 0.00 0.00 0.00 53 1015.4
20260505191645 76 162 3.0 5.0 0.00 0.00 0.00 50 1015.5
20260505191143 78 164 5.0 6.0 0.00 0.00 0.00 48 1015.7
20260505190638 77 227 2.0 3.0 0.00 0.00 0.00 48 1015.6
20260505190138 76 214 4.0 6.0 0.00 0.00 0.00 51 1015.8
20260505185635 75 129 3.0 3.0 0.00 0.00 0.00 51 1015.8
20260505185132 75 158 4.0 5.0 0.00 0.00 0.00 49 1015.9
20260505184628 77 192 3.0 5.0 0.00 0.00 0.00 51 1015.9
20260505184125 76 223 3.0 3.0 0.00 0.00 0.00 53 1015.8
20260505183622 77 219 3.0 5.0 0.00 0.00 0.00 46 1016.1
20260505183120 77 200 3.0 5.0 0.00 0.00 0.00 47 1016.1
20260505182616 77 212 6.0 7.0 0.00 0.00 0.00 49 1016.1
20260505182113 76 109 3.0 5.0 0.00 0.00 0.00 49 1015.9
20260505181609 78 154 7.0 7.0 0.00 0.00 0.00 51 1015.9
20260505181107 76 223 3.0 5.0 0.00 0.00 0.00 50 1015.8
20260505180603 75 183 3.0 3.0 0.00 0.00 0.00 47 1016.1
20260505180100 76 209 4.0 6.0 0.00 0.00 0.00 45 1016.3
20260505175556 76 236 2.0 2.0 0.00 0.00 0.00 46 1016.2
20260505175052 75 224 6.0 7.0 0.00 0.00 0.00 48 1016.2
20260505174550 75 202 4.0 5.0 0.00 0.00 0.00 48 1016.2
20260505174045 75 236 5.0 6.0 0.00 0.00 0.00 51 1016.3
20260505173537 76 221 4.0 5.0 0.00 0.00 0.00 51 1016.4
20260505173033 75 147 3.0 3.0 0.00 0.00 0.00 49 1016.3
20260505172531 75 183 4.0 8.0 0.00 0.00 0.00 50 1016.6
20260505172027 74 156 8.0 11.0 0.00 0.00 0.00 50 1016.4
20260505171523 75 185 6.0 8.0 0.00 0.00 0.00 48 1016.4
20260505171020 76 166 5.0 6.0 0.00 0.00 0.00 49 1016.4
20260505170516 77 186 5.0 6.0 0.00 0.00 0.00 51 1016.7
20260505170013 77 243 2.0 2.0 0.00 0.00 0.00 48 1016.6
20260505165508 76 223 2.0 2.0 0.00 0.00 0.00 52 1016.8
20260505165004 75 157 3.0 3.0 0.00 0.00 0.00 51 1016.6
20260505164500 75 188 4.0 5.0 0.00 0.00 0.00 50 1016.4
20260505163958 75 229 5.0 7.0 0.00 0.00 0.00 51 1017.0
20260505163457 75 213 3.0 5.0 0.00 0.00 0.00 50 1016.8
20260505162956 74 228 4.0 5.0 0.00 0.00 0.00 51 1016.7
20260505162451 73 164 3.0 9.0 0.00 0.00 0.00 57 1016.7
20260505161948 74 242 3.0 3.0 0.00 0.00 0.00 53 1016.8
20260505161444 73 209 3.0 5.0 0.00 0.00 0.00 58 1016.8
20260505160942 73 225 6.0 7.0 0.00 0.00 0.00 57 1016.9
20260505160440 73 206 3.0 7.0 0.00 0.00 0.00 57 1016.7
20260505152916 70 159 2.0 3.0 0.00 0.00 0.00 66 1017.0
20260505152408 70 218 1.0 2.0 0.00 0.00 0.00 63 1016.9
20260505151908 69 171 2.0 2.0 0.00 0.00 0.00 69 1017.1
20260505151404 68 152 2.0 2.0 0.00 0.00 0.00 71 1017.0
20260505150901 68 132 4.0 5.0 0.00 0.00 0.00 72 1017.2
20260505150358 68 154 2.0 3.0 0.00 0.00 0.00 73 1017.2
20260505140317 65 163 4.0 5.0 0.00 0.00 0.00 73 1017.6
20260505130240 61 175 3.0 3.0 0.00 0.00 0.00 81 1017.2
20260505124731 60 171 2.0 2.0 0.00 0.00 0.00 82 1017.2
20260505124228 60 236 1.0 1.0 0.00 0.00 0.00 82 1017.3
20260505123723 60 145 2.0 2.0 0.00 0.00 0.00 84 1017.2
20260505123220 60 293 0.0 0.0 0.00 0.00 0.00 83 1017.2
20260505122717 59 313 1.0 1.0 0.00 0.00 0.00 83 1017.1
20260505122214 58 310 1.0 1.0 0.00 0.00 0.00 84 1017.1
20260505121710 58 350 2.0 2.0 0.00 0.00 0.00 85 1017.0
20260505121207 57 278 0.0 1.0 0.00 0.00 0.00 86 1017.3
20260505120704 56 277 0.0 1.0 0.00 0.00 0.00 88 1016.9
20260505120159 55 272 0.0 1.0 0.00 0.00 0.00 89 1016.8
20260505115653 54 272 1.0 2.0 0.00 0.00 0.00 89 1016.4
20260505115151 54 274 1.0 1.0 0.00 0.00 0.00 90 1016.4
20260505114648 54 268 1.0 1.0 0.00 0.00 0.00 91 1016.5
20260505114144 54 276 2.0 2.0 0.00 0.00 0.00 91 1016.3
20260505113641 53 276 1.0 1.0 0.00 0.00 0.00 90 1016.3
20260505113137 53 276 0.0 0.0 0.00 0.00 0.00 90 1016.2
20260505112633 54 276 0.0 0.0 0.00 0.00 0.00 90 1016.3
20260505112132 54 275 0.0 0.0 0.00 0.00 0.00 90 1015.9
20260505111625 54 275 0.0 0.0 0.00 0.00 0.00 90 1015.8
20260505111122 54 275 0.0 0.0 0.00 0.00 0.00 90 1015.6
20260505110618 54 269 0.0 0.0 0.00 0.00 0.00 89 1015.6
20260505110115 54 269 0.0 0.0 0.00 0.00 0.00 89 1015.6
20260505102051 56 260 0.0 0.0 0.00 0.00 0.00 81 1015.2
20260505101549 57 235 0.0 1.0 0.00 0.00 0.00 80 1015.1
20260505101045 57 248 0.0 0.0 0.00 0.00 0.00 80 1015.1
20260505100542 57 220 2.0 2.0 0.00 0.00 0.00 79 1015.2
20260505100039 57 222 2.0 2.0 0.00 0.00 0.00 79 1015.0
20260505095535 57 216 2.0 2.0 0.00 0.00 0.00 79 1015.2
20260505095032 57 229 2.0 2.0 0.00 0.00 0.00 78 1015.4
20260505094528 57 244 1.0 2.0 0.00 0.00 0.00 78 1015.7
20260505094024 57 217 2.0 2.0 0.00 0.00 0.00 79 1015.5
20260505093521 57 258 0.0 1.0 0.00 0.00 0.00 78 1015.3
20260505093019 57 221 2.0 2.0 0.00 0.00 0.00 79 1015.1
20260505092516 57 233 2.0 2.0 0.00 0.00 0.00 79 1015.3
20260505092014 56 258 0.0 0.0 0.00 0.00 0.00 80 1015.3
20260505091511 56 264 0.0 0.0 0.00 0.00 0.00 80 1015.5
20260505091009 56 254 1.0 1.0 0.00 0.00 0.00 81 1015.4
20260505090506 56 229 1.0 1.0 0.00 0.00 0.00 82 1015.3
20260505090004 54 257 0.0 1.0 0.00 0.00 0.00 86 1015.3
20260505085502 53 258 0.0 0.0 0.00 0.00 0.00 90 1015.6
20260505085000 52 273 0.0 0.0 0.00 0.00 0.00 92 1015.3
20260505084458 52 268 0.0 0.0 0.00 0.00 0.00 92 1015.7
20260505083955 52 270 0.0 0.0 0.00 0.00 0.00 92 1015.5
20260505083452 52 270 0.0 0.0 0.00 0.00 0.00 91 1015.7
20260505082948 52 270 0.0 0.0 0.00 0.00 0.00 91 1015.5
20260505082444 52 270 0.0 0.0 0.00 0.00 0.00 91 1015.6
20260505081942 52 270 0.0 0.0 0.00 0.00 0.00 90 1015.5
20260505081438 52 270 0.0 0.0 0.00 0.00 0.00 90 1015.6
20260505080935 52 270 0.0 0.0 0.00 0.00 0.00 90 1015.7
20260505080431 53 270 0.0 0.0 0.00 0.00 0.00 90 1015.7
20260505075926 53 271 0.0 0.0 0.00 0.00 0.00 90 1015.9
20260505075424 53 272 0.0 0.0 0.00 0.00 0.00 90 1016.0
20260505074921 53 266 0.0 0.0 0.00 0.00 0.00 90 1016.0
20260505074418 53 270 0.0 1.0 0.00 0.00 0.00 91 1016.0
20260505073915 53 266 0.0 0.0 0.00 0.00 0.00 90 1015.8
20260505073413 53 266 0.0 0.0 0.00 0.00 0.00 90 1015.9
20260505072910 53 262 0.0 0.0 0.00 0.00 0.00 89 1015.6
20260505072406 53 264 0.0 0.0 0.00 0.00 0.00 89 1015.5
20260505071902 53 273 1.0 1.0 0.00 0.00 0.00 89 1015.6
20260505071358 53 277 1.0 1.0 0.00 0.00 0.00 89 1015.5
20260505070857 53 272 1.0 1.0 0.00 0.00 0.00 89 1015.7
20260505070353 53 268 1.0 1.0 0.00 0.00 0.00 89 1015.7
20260505065848 53 274 1.0 1.0 0.00 0.00 0.00 89 1015.8
20260505065345 53 272 0.0 0.0 0.00 0.00 0.00 89 1015.7
20260505064842 53 272 0.0 0.0 0.00 0.00 0.00 89 1015.7
20260505064339 53 270 0.0 0.0 0.00 0.00 0.00 89 1015.7
20260505063838 54 271 0.0 0.0 0.00 0.00 0.00 88 1015.6
20260505063333 54 273 0.0 0.0 0.00 0.00 0.00 88 1015.8
20260505062830 54 266 0.0 0.0 0.00 0.00 0.00 88 1015.9
20260505062327 54 274 1.0 1.0 0.00 0.00 0.00 88 1015.7
20260505061824 54 272 0.0 0.0 0.00 0.00 0.00 88 1015.7
20260505061322 54 273 1.0 1.0 0.00 0.00 0.00 88 1015.9
20260505060820 54 271 0.0 0.0 0.00 0.00 0.00 89 1015.9
20260505060316 54 269 1.0 1.0 0.00 0.00 0.00 88 1015.9
20260505055812 54 274 1.0 1.0 0.00 0.00 0.00 88 1015.9
20260505055308 54 269 1.0 1.0 0.00 0.00 0.00 88 1016.1
20260505054806 55 270 0.0 1.0 0.00 0.00 0.00 89 1016.1
20260505054303 55 273 2.0 2.0 0.00 0.00 0.00 89 1016.0